| time (UTC) | temp C | wind direction | speed KPH | gust KPH | rain 1hr cm | rain 24hr cm | rain mn cm | humidity % | barometer mb |
| 20260507155646 | 12 | 357 | 3.2 | 3.2 | 0.00 | 0.00 | 0.00 | 47 | 998.9 |
| 20260507155142 | 12 | 224 | 3.2 | 4.8 | 0.00 | 0.00 | 0.00 | 46 | 999.0 |
| 20260507154639 | 12 | 182 | 3.2 | 4.8 | 0.00 | 0.00 | 0.00 | 48 | 999.2 |
| 20260507154137 | 12 | 271 | 4.8 | 4.8 | 0.00 | 0.00 | 0.00 | 47 | 998.9 |
| 20260507153633 | 13 | 86 | 3.2 | 3.2 | 0.00 | 0.00 | 0.00 | 47 | 998.9 |
| 20260507153130 | 13 | 17 | 4.8 | 4.8 | 0.00 | 0.00 | 0.00 | 47 | 998.9 |
| 20260507152626 | 12 | 107 | 3.2 | 3.2 | 0.00 | 0.00 | 0.00 | 48 | 998.7 |
| 20260507152122 | 12 | 98 | 4.8 | 4.8 | 0.00 | 0.00 | 0.00 | 47 | 998.8 |
| 20260507151618 | 12 | 139 | 6.4 | 8.0 | 0.00 | 0.00 | 0.00 | 47 | 998.9 |
| 20260507151115 | 12 | 276 | 3.2 | 4.8 | 0.00 | 0.00 | 0.00 | 46 | 998.7 |
| 20260507150612 | 11 | 230 | 1.6 | 3.2 | 0.00 | 0.00 | 0.00 | 50 | 998.7 |
| 20260507150109 | 11 | 56 | 11.3 | 12.9 | 0.00 | 0.00 | 0.00 | 48 | 998.6 |
| 20260507145604 | 12 | 35 | 8.0 | 11.3 | 0.00 | 0.00 | 0.00 | 49 | 998.8 |
| 20260507145102 | 12 | 78 | 4.8 | 4.8 | 0.00 | 0.00 | 0.00 | 49 | 999.0 |
| 20260507144558 | 12 | 61 | 6.4 | 9.7 | 0.00 | 0.00 | 0.00 | 49 | 998.9 |
| 20260507144056 | 11 | 30 | 6.4 | 9.7 | 0.00 | 0.00 | 0.00 | 49 | 998.9 |
| 20260507143552 | 11 | 344 | 6.4 | 8.0 | 0.00 | 0.00 | 0.00 | 48 | 999.1 |
| 20260507143050 | 11 | 85 | 3.2 | 3.2 | 0.00 | 0.00 | 0.00 | 52 | 998.9 |
| 20260507142550 | 11 | 199 | 1.6 | 1.6 | 0.00 | 0.00 | 0.00 | 49 | 999.0 |
| 20260507142047 | 12 | 38 | 4.8 | 11.3 | 0.00 | 0.00 | 0.00 | 47 | 998.9 |
| 20260507141543 | 11 | 99 | 1.6 | 3.2 | 0.00 | 0.00 | 0.00 | 49 | 998.9 |
| 20260507141040 | 11 | 153 | 4.8 | 8.0 | 0.00 | 0.00 | 0.00 | 48 | 998.9 |
| 20260507140537 | 11 | 171 | 3.2 | 4.8 | 0.00 | 0.00 | 0.00 | 50 | 998.9 |
| 20260507140035 | 11 | 311 | 9.7 | 11.3 | 0.00 | 0.00 | 0.00 | 48 | 998.9 |
| 20260507135531 | 11 | 72 | 3.2 | 3.2 | 0.00 | 0.00 | 0.00 | 52 | 999.0 |
| 20260507135029 | 11 | 132 | 3.2 | 3.2 | 0.00 | 0.00 | 0.00 | 50 | 998.9 |
| 20260507134525 | 11 | 127 | 3.2 | 4.8 | 0.00 | 0.00 | 0.00 | 50 | 998.7 |
| 20260507134021 | 11 | 325 | 6.4 | 8.0 | 0.00 | 0.00 | 0.00 | 53 | 998.8 |
| 20260507133517 | 11 | 71 | 4.8 | 4.8 | 0.00 | 0.00 | 0.00 | 52 | 998.8 |
| 20260507133016 | 10 | 73 | 4.8 | 4.8 | 0.00 | 0.00 | 0.00 | 53 | 998.9 |
| 20260507132512 | 11 | 62 | 8.0 | 11.3 | 0.00 | 0.00 | 0.00 | 55 | 998.8 |
| 20260507132008 | 10 | 78 | 3.2 | 3.2 | 0.00 | 0.00 | 0.00 | 55 | 999.1 |
| 20260507131505 | 10 | 8 | 4.8 | 4.8 | 0.00 | 0.00 | 0.00 | 56 | 999.0 |
| 20260507131002 | 10 | 99 | 4.8 | 4.8 | 0.00 | 0.00 | 0.00 | 57 | 998.9 |
| 20260507130459 | 10 | 314 | 6.4 | 9.7 | 0.00 | 0.00 | 0.00 | 59 | 998.9 |
| 20260507125957 | 10 | 37 | 6.4 | 8.0 | 0.00 | 0.00 | 0.00 | 61 | 998.8 |
| 20260507125455 | 10 | 95 | 3.2 | 3.2 | 0.00 | 0.00 | 0.00 | 62 | 998.9 |
| 20260507124952 | 9 | 102 | 3.2 | 3.2 | 0.00 | 0.00 | 0.00 | 63 | 998.9 |
| 20260507124449 | 9 | 53 | 6.4 | 9.7 | 0.00 | 0.00 | 0.00 | 62 | 998.8 |
| 20260507123947 | 8 | 50 | 1.6 | 3.2 | 0.00 | 0.00 | 0.00 | 65 | 998.8 |
| 20260507123444 | 8 | 55 | 4.8 | 4.8 | 0.00 | 0.00 | 0.00 | 66 | 998.9 |
| 20260507122940 | 8 | 165 | 1.6 | 1.6 | 0.00 | 0.00 | 0.00 | 68 | 998.9 |
| 20260507122436 | 8 | 97 | 3.2 | 4.8 | 0.00 | 0.00 | 0.00 | 69 | 999.1 |
| 20260507121932 | 8 | 81 | 3.2 | 4.8 | 0.00 | 0.00 | 0.00 | 70 | 999.1 |
| 20260507121427 | 8 | 131 | 1.6 | 3.2 | 0.00 | 0.00 | 0.00 | 72 | 999.1 |
| 20260507120924 | 7 | 46 | 8.0 | 9.7 | 0.00 | 0.00 | 0.00 | 72 | 999.0 |
| 20260507120421 | 7 | 128 | 3.2 | 3.2 | 0.00 | 0.00 | 0.00 | 75 | 999.1 |
| 20260507115917 | 7 | 148 | 0.0 | 0.0 | 0.00 | 0.00 | 0.00 | 80 | 999.1 |
| 20260507115413 | 6 | 99 | 1.6 | 1.6 | 0.00 | 0.00 | 0.00 | 89 | 999.0 |
| 20260507114909 | 5 | 180 | 0.0 | 0.0 | 0.00 | 0.00 | 0.00 | 95 | 998.8 |
| 20260507114406 | 5 | 177 | 0.0 | 0.0 | 0.00 | 0.00 | 0.00 | 98 | 998.8 |
| 20260507113903 | 4 | 185 | 0.0 | 0.0 | 0.00 | 0.00 | 0.00 | 99 | 999.1 |
| 20260507113400 | 3 | 184 | 0.0 | 0.0 | 0.00 | 0.00 | 0.00 | 99 | 999.1 |
| 20260507112857 | 3 | 205 | 0.0 | 0.0 | 0.00 | 0.00 | 0.00 | 99 | 999.1 |
| 20260507112355 | 3 | 187 | 0.0 | 0.0 | 0.00 | 0.00 | 0.00 | 99 | 998.9 |
| 20260507111852 | 3 | 182 | 0.0 | 0.0 | 0.00 | 0.00 | 0.00 | 99 | 999.0 |
| 20260507111349 | 3 | 188 | 0.0 | 0.0 | 0.00 | 0.00 | 0.00 | 99 | 998.7 |
| 20260507110845 | 3 | 188 | 0.0 | 0.0 | 0.00 | 0.00 | 0.00 | 99 | 998.8 |
| 20260507110341 | 3 | 185 | 0.0 | 0.0 | 0.00 | 0.00 | 0.00 | 99 | 998.6 |
| 20260507105839 | 3 | 191 | 0.0 | 0.0 | 0.00 | 0.00 | 0.00 | 99 | 998.4 |
| 20260507105335 | 3 | 182 | 0.0 | 0.0 | 0.00 | 0.00 | 0.00 | 99 | 998.6 |
| 20260507104832 | 3 | 185 | 0.0 | 0.0 | 0.00 | 0.00 | 0.00 | 99 | 998.4 |
| 20260507104328 | 3 | 182 | 0.0 | 0.0 | 0.00 | 0.00 | 0.00 | 99 | 998.2 |
| 20260507103824 | 3 | 185 | 0.0 | 0.0 | 0.00 | 0.00 | 0.00 | 99 | 998.2 |
| 20260507103321 | 3 | 176 | 0.0 | 0.0 | 0.00 | 0.00 | 0.00 | 99 | 998.3 |
| 20260507102817 | 3 | 180 | 0.0 | 0.0 | 0.00 | 0.00 | 0.00 | 99 | 998.4 |
| 20260507102314 | 3 | 178 | 0.0 | 0.0 | 0.00 | 0.00 | 0.00 | 99 | 998.3 |
| 20260507101810 | 3 | 185 | 0.0 | 0.0 | 0.00 | 0.00 | 0.00 | 99 | 998.6 |
| 20260507101305 | 3 | 175 | 0.0 | 0.0 | 0.00 | 0.00 | 0.00 | 99 | 998.4 |
| 20260507100803 | 3 | 184 | 0.0 | 0.0 | 0.00 | 0.00 | 0.00 | 99 | 998.4 |
| 20260507100301 | 3 | 175 | 1.6 | 1.6 | 0.00 | 0.00 | 0.00 | 99 | 998.2 |
| 20260507095758 | 3 | 184 | 0.0 | 0.0 | 0.00 | 0.00 | 0.00 | 99 | 998.1 |
| 20260507095254 | 3 | 122 | 1.6 | 1.6 | 0.00 | 0.00 | 0.00 | 99 | 998.2 |
| 20260507094751 | 3 | 190 | 0.0 | 0.0 | 0.00 | 0.00 | 0.00 | 99 | 998.3 |
| 20260507094248 | 2 | 184 | 0.0 | 0.0 | 0.00 | 0.00 | 0.00 | 99 | 998.3 |
| 20260507093745 | 3 | 184 | 0.0 | 0.0 | 0.00 | 0.00 | 0.00 | 99 | 998.2 |
| 20260507093244 | 3 | 187 | 0.0 | 0.0 | 0.00 | 0.00 | 0.00 | 99 | 998.3 |
| 20260507092741 | 3 | 184 | 0.0 | 0.0 | 0.00 | 0.00 | 0.00 | 99 | 998.2 |
| 20260507092237 | 3 | 177 | 0.0 | 0.0 | 0.00 | 0.00 | 0.00 | 99 | 998.1 |
| 20260507091734 | 3 | 177 | 0.0 | 0.0 | 0.00 | 0.00 | 0.00 | 99 | 998.0 |
| 20260507091230 | 3 | 177 | 0.0 | 0.0 | 0.00 | 0.00 | 0.00 | 99 | 998.2 |
| 20260507090726 | 3 | 177 | 0.0 | 0.0 | 0.00 | 0.00 | 0.00 | 99 | 998.0 |
| 20260507090222 | 3 | 177 | 0.0 | 0.0 | 0.00 | 0.00 | 0.00 | 99 | 998.0 |
| 20260507085720 | 3 | 177 | 0.0 | 0.0 | 0.00 | 0.00 | 0.00 | 99 | 998.0 |
| 20260507085217 | 3 | 177 | 0.0 | 0.0 | 0.00 | 0.00 | 0.00 | 99 | 998.2 |
| 20260507084713 | 3 | 177 | 0.0 | 0.0 | 0.00 | 0.00 | 0.00 | 99 | 997.9 |
| 20260507084210 | 3 | 177 | 0.0 | 0.0 | 0.00 | 0.00 | 0.00 | 99 | 998.0 |
| 20260507083708 | 3 | 177 | 0.0 | 0.0 | 0.00 | 0.00 | 0.00 | 99 | 998.0 |
| 20260507083204 | 3 | 176 | 0.0 | 0.0 | 0.00 | 0.00 | 0.00 | 99 | 997.8 |
| 20260507082700 | 3 | 176 | 0.0 | 0.0 | 0.00 | 0.00 | 0.00 | 99 | 997.7 |
| 20260507082156 | 3 | 176 | 0.0 | 0.0 | 0.00 | 0.00 | 0.00 | 99 | 997.8 |
| 20260507081653 | 3 | 176 | 0.0 | 0.0 | 0.00 | 0.00 | 0.00 | 99 | 997.9 |
| 20260507081149 | 3 | 176 | 0.0 | 0.0 | 0.00 | 0.00 | 0.00 | 99 | 997.9 |
| 20260507080646 | 3 | 176 | 0.0 | 0.0 | 0.00 | 0.00 | 0.00 | 99 | 997.7 |
| 20260507080142 | 3 | 176 | 0.0 | 0.0 | 0.00 | 0.00 | 0.00 | 99 | 997.8 |
| 20260507075637 | 3 | 176 | 0.0 | 0.0 | 0.00 | 0.00 | 0.00 | 99 | 997.8 |
| 20260507075133 | 3 | 176 | 0.0 | 0.0 | 0.00 | 0.00 | 0.00 | 99 | 997.8 |
| 20260507074630 | 3 | 176 | 0.0 | 0.0 | 0.00 | 0.00 | 0.00 | 99 | 997.8 |
| 20260507074129 | 3 | 176 | 0.0 | 0.0 | 0.00 | 0.00 | 0.00 | 99 | 997.8 |
| 20260507073625 | 3 | 176 | 0.0 | 0.0 | 0.00 | 0.00 | 0.00 | 99 | 997.8 |
| 20260507073121 | 3 | 176 | 0.0 | 0.0 | 0.00 | 0.00 | 0.00 | 99 | 997.8 |
| 20260507072619 | 4 | 176 | 0.0 | 0.0 | 0.00 | 0.00 | 0.00 | 99 | 997.7 |
| 20260507072116 | 4 | 177 | 0.0 | 0.0 | 0.00 | 0.00 | 0.00 | 99 | 997.7 |
| 20260507071613 | 3 | 176 | 0.0 | 0.0 | 0.00 | 0.00 | 0.00 | 99 | 997.7 |
| 20260507071110 | 3 | 176 | 0.0 | 0.0 | 0.00 | 0.00 | 0.00 | 99 | 997.7 |
| 20260507070607 | 4 | 176 | 0.0 | 0.0 | 0.00 | 0.00 | 0.00 | 99 | 997.8 |
| 20260507070104 | 5 | 176 | 0.0 | 0.0 | 0.00 | 0.00 | 0.00 | 99 | 997.9 |
| 20260507065600 | 4 | 176 | 0.0 | 0.0 | 0.00 | 0.00 | 0.00 | 99 | 997.9 |
| 20260507065057 | 4 | 176 | 0.0 | 0.0 | 0.00 | 0.00 | 0.00 | 99 | 997.6 |
| 20260507064555 | 4 | 176 | 0.0 | 0.0 | 0.00 | 0.00 | 0.00 | 99 | 997.7 |
| 20260507064054 | 5 | 176 | 0.0 | 0.0 | 0.00 | 0.00 | 0.00 | 99 | 997.8 |
| 20260507063550 | 4 | 176 | 0.0 | 0.0 | 0.00 | 0.00 | 0.00 | 99 | 998.0 |
| 20260507063048 | 4 | 176 | 0.0 | 0.0 | 0.00 | 0.00 | 0.00 | 99 | 998.0 |
| 20260507062544 | 5 | 176 | 0.0 | 0.0 | 0.00 | 0.00 | 0.00 | 99 | 998.1 |
| 20260507062041 | 5 | 176 | 0.0 | 0.0 | 0.00 | 0.00 | 0.00 | 99 | 998.0 |
| 20260507061539 | 5 | 176 | 0.0 | 0.0 | 0.00 | 0.00 | 0.00 | 99 | 997.9 |
| 20260507061037 | 5 | 176 | 0.0 | 0.0 | 0.00 | 0.00 | 0.00 | 99 | 998.0 |
| 20260507060535 | 5 | 176 | 0.0 | 0.0 | 0.00 | 0.00 | 0.00 | 99 | 997.8 |
| 20260507060031 | 5 | 176 | 0.0 | 0.0 | 0.00 | 0.00 | 0.00 | 99 | 997.8 |
| 20260507055531 | 5 | 176 | 0.0 | 0.0 | 0.00 | 0.00 | 0.00 | 99 | 997.9 |
| 20260507055028 | 5 | 176 | 0.0 | 0.0 | 0.00 | 0.00 | 0.00 | 99 | 998.0 |
| 20260507054524 | 5 | 176 | 0.0 | 0.0 | 0.00 | 0.00 | 0.00 | 99 | 997.9 |
| 20260507054021 | 5 | 176 | 0.0 | 0.0 | 0.00 | 0.00 | 0.00 | 99 | 998.0 |
| 20260507053519 | 5 | 176 | 0.0 | 0.0 | 0.00 | 0.00 | 0.00 | 99 | 998.0 |
| 20260507053018 | 5 | 176 | 0.0 | 0.0 | 0.00 | 0.00 | 0.00 | 99 | 998.1 |
| 20260507052515 | 5 | 176 | 0.0 | 0.0 | 0.00 | 0.00 | 0.00 | 99 | 998.1 |
| 20260507052011 | 6 | 176 | 0.0 | 0.0 | 0.00 | 0.00 | 0.00 | 99 | 998.0 |
| 20260507051509 | 5 | 176 | 0.0 | 0.0 | 0.00 | 0.00 | 0.00 | 99 | 998.1 |
| 20260507051006 | 5 | 176 | 0.0 | 0.0 | 0.00 | 0.00 | 0.00 | 99 | 998.1 |
| 20260507050502 | 5 | 176 | 0.0 | 0.0 | 0.00 | 0.00 | 0.00 | 98 | 997.8 |
| 20260507045959 | 5 | 176 | 0.0 | 0.0 | 0.00 | 0.00 | 0.00 | 98 | 997.9 |
| 20260507045455 | 6 | 176 | 0.0 | 0.0 | 0.00 | 0.00 | 0.00 | 98 | 997.9 |
| 20260507044953 | 5 | 176 | 0.0 | 0.0 | 0.00 | 0.00 | 0.00 | 98 | 998.0 |
| 20260507044450 | 6 | 176 | 0.0 | 0.0 | 0.00 | 0.00 | 0.00 | 97 | 998.0 |
| 20260507043946 | 6 | 176 | 0.0 | 0.0 | 0.00 | 0.00 | 0.00 | 97 | 998.2 |
| 20260507043442 | 6 | 176 | 0.0 | 0.0 | 0.00 | 0.00 | 0.00 | 97 | 998.4 |
| 20260507042938 | 6 | 176 | 0.0 | 0.0 | 0.00 | 0.00 | 0.00 | 97 | 998.0 |
| 20260507042436 | 6 | 176 | 0.0 | 0.0 | 0.00 | 0.00 | 0.00 | 97 | 998.3 |
| 20260507041931 | 6 | 173 | 0.0 | 0.0 | 0.00 | 0.00 | 0.00 | 96 | 998.2 |
| 20260507041428 | 6 | 173 | 0.0 | 0.0 | 0.00 | 0.00 | 0.00 | 96 | 998.2 |
| 20260507040926 | 6 | 182 | 0.0 | 0.0 | 0.00 | 0.00 | 0.00 | 95 | 998.2 |
| 20260507040421 | 6 | 184 | 0.0 | 0.0 | 0.00 | 0.00 | 0.00 | 95 | 998.2 |
| 20260507035917 | 6 | 176 | 0.0 | 0.0 | 0.00 | 1.73 | 1.73 | 95 | 998.2 |
| 20260507035414 | 6 | 176 | 0.0 | 0.0 | 0.00 | 1.73 | 1.73 | 94 | 998.1 |
| 20260507034911 | 6 | 176 | 0.0 | 0.0 | 0.00 | 1.73 | 1.73 | 94 | 998.0 |
| 20260507034407 | 7 | 176 | 0.0 | 0.0 | 0.00 | 1.73 | 1.73 | 93 | 998.1 |
| 20260507033905 | 7 | 176 | 0.0 | 0.0 | 0.00 | 1.73 | 1.73 | 93 | 997.8 |
| 20260507033403 | 7 | 176 | 0.0 | 0.0 | 0.00 | 1.73 | 1.73 | 92 | 997.9 |
| 20260507032900 | 7 | 176 | 0.0 | 0.0 | 0.00 | 1.73 | 1.73 | 92 | 998.1 |
| 20260507032356 | 7 | 176 | 0.0 | 0.0 | 0.00 | 1.73 | 1.73 | 91 | 998.2 |
| 20260507031853 | 7 | 176 | 0.0 | 0.0 | 0.00 | 1.73 | 1.73 | 91 | 998.0 |
| 20260507031350 | 7 | 176 | 0.0 | 0.0 | 0.00 | 1.73 | 1.73 | 91 | 998.2 |
| 20260507030846 | 7 | 176 | 0.0 | 0.0 | 0.00 | 1.73 | 1.73 | 90 | 998.1 |
| 20260507030344 | 7 | 177 | 0.0 | 0.0 | 0.00 | 1.73 | 1.73 | 90 | 998.2 |
| 20260507025840 | 7 | 176 | 0.0 | 0.0 | 0.00 | 1.73 | 1.73 | 89 | 998.0 |
| 20260507025338 | 8 | 176 | 0.0 | 0.0 | 0.00 | 1.73 | 1.73 | 88 | 998.2 |
| 20260507024835 | 8 | 176 | 0.0 | 0.0 | 0.00 | 1.73 | 1.73 | 87 | 998.0 |
| 20260507024333 | 8 | 176 | 0.0 | 0.0 | 0.00 | 1.73 | 1.73 | 87 | 998.0 |
| 20260507023828 | 8 | 176 | 0.0 | 0.0 | 0.00 | 1.73 | 1.73 | 85 | 998.1 |
| 20260507023325 | 8 | 176 | 0.0 | 0.0 | 0.00 | 1.73 | 1.73 | 85 | 997.9 |
| 20260507022822 | 8 | 176 | 0.0 | 0.0 | 0.00 | 1.73 | 1.73 | 84 | 998.0 |
| 20260507022318 | 8 | 176 | 0.0 | 0.0 | 0.00 | 1.73 | 1.73 | 83 | 997.9 |
| 20260507021809 | 8 | 176 | 0.0 | 0.0 | 0.00 | 1.73 | 1.73 | 82 | 998.0 |
| 20260507021305 | 9 | 176 | 0.0 | 0.0 | 0.00 | 1.73 | 1.73 | 81 | 997.7 |
| 20260507020803 | 9 | 176 | 0.0 | 0.0 | 0.00 | 1.73 | 1.73 | 80 | 997.8 |
| 20260507020259 | 10 | 176 | 0.0 | 0.0 | 0.00 | 1.73 | 1.73 | 77 | 997.7 |
| 20260507015757 | 10 | 176 | 0.0 | 0.0 | 0.00 | 1.73 | 1.73 | 77 | 997.8 |
| 20260507015254 | 10 | 176 | 0.0 | 0.0 | 0.00 | 1.73 | 1.73 | 77 | 997.6 |
| 20260507014751 | 10 | 176 | 0.0 | 0.0 | 0.00 | 1.73 | 1.73 | 74 | 997.7 |
| 20260507014247 | 10 | 176 | 0.0 | 0.0 | 0.00 | 1.73 | 1.73 | 74 | 997.6 |
| 20260507013744 | 10 | 176 | 0.0 | 0.0 | 0.00 | 1.73 | 1.73 | 73 | 997.7 |
| 20260507013241 | 11 | 176 | 0.0 | 0.0 | 0.00 | 1.73 | 1.73 | 72 | 997.5 |
| 20260507012738 | 11 | 176 | 0.0 | 0.0 | 0.00 | 1.73 | 1.73 | 72 | 997.6 |
| 20260507012234 | 11 | 176 | 0.0 | 0.0 | 0.00 | 1.73 | 1.73 | 67 | 997.6 |
| 20260507011732 | 11 | 177 | 0.0 | 0.0 | 0.00 | 1.73 | 1.73 | 65 | 997.2 |
| 20260507011228 | 11 | 240 | 0.0 | 0.0 | 0.00 | 1.73 | 1.73 | 65 | 997.3 |
| 20260507010727 | 12 | 179 | 0.0 | 0.0 | 0.00 | 1.73 | 1.73 | 64 | 997.3 |
| 20260507010224 | 12 | 168 | 0.0 | 0.0 | 0.00 | 1.73 | 1.73 | 64 | 997.1 |
| 20260507005722 | 12 | 164 | 1.6 | 1.6 | 0.00 | 1.73 | 1.73 | 63 | 997.2 |
| 20260507005218 | 12 | 177 | 0.0 | 0.0 | 0.00 | 1.73 | 1.73 | 63 | 997.3 |
| 20260507004714 | 12 | 173 | 0.0 | 0.0 | 0.00 | 1.73 | 1.73 | 63 | 997.3 |
| 20260507004212 | 12 | 136 | 3.2 | 4.8 | 0.00 | 1.73 | 1.73 | 62 | 997.2 |
| 20260507003708 | 12 | 168 | 0.0 | 1.6 | 0.00 | 1.73 | 1.73 | 64 | 997.1 |
| 20260507003203 | 13 | 140 | 1.6 | 1.6 | 0.00 | 1.73 | 1.73 | 62 | 997.1 |
| 20260507002700 | 13 | 81 | 4.8 | 8.0 | 0.00 | 1.73 | 1.73 | 62 | 997.1 |
| 20260507002156 | 13 | 156 | 1.6 | 1.6 | 0.00 | 1.73 | 1.73 | 62 | 996.9 |
| 20260507001652 | 13 | 98 | 4.8 | 4.8 | 0.00 | 1.73 | 1.73 | 62 | 997.1 |
| 20260507001150 | 13 | 70 | 1.6 | 3.2 | 0.00 | 1.73 | 1.73 | 62 | 996.9 |
| 20260507000646 | 13 | 72 | 3.2 | 4.8 | 0.00 | 1.73 | 1.73 | 61 | 997.0 |
| 20260507000142 | 13 | 157 | 0.0 | 1.6 | 0.00 | 1.73 | 1.73 | 61 | 996.9 |
| 20260506235639 | 14 | 159 | 3.2 | 3.2 | 0.00 | 1.73 | 1.73 | 60 | 996.6 |
| 20260506235139 | 14 | 168 | 1.6 | 1.6 | 0.00 | 1.73 | 1.73 | 60 | 996.9 |
| 20260506234637 | 13 | 158 | 0.0 | 1.6 | 0.00 | 1.73 | 1.73 | 59 | 996.7 |
| 20260506234134 | 13 | 81 | 1.6 | 3.2 | 0.00 | 1.73 | 1.73 | 59 | 996.7 |
| 20260506233631 | 13 | 178 | 0.0 | 1.6 | 0.00 | 1.73 | 1.73 | 61 | 996.6 |
| 20260506233128 | 13 | 48 | 6.4 | 11.3 | 0.00 | 1.73 | 1.73 | 58 | 996.5 |
| 20260506232624 | 14 | 124 | 4.8 | 4.8 | 0.00 | 1.73 | 1.73 | 58 | 996.5 |
| 20260506232119 | 14 | 176 | 0.0 | 0.0 | 0.00 | 1.73 | 1.73 | 59 | 996.5 |
| 20260506231617 | 15 | 158 | 1.6 | 1.6 | 0.00 | 1.73 | 1.73 | 58 | 996.4 |
| 20260506231115 | 14 | 36 | 3.2 | 4.8 | 0.00 | 1.73 | 1.73 | 57 | 996.3 |
| 20260506230612 | 14 | 155 | 3.2 | 3.2 | 0.00 | 1.73 | 1.73 | 57 | 996.2 |
| 20260506230109 | 14 | 31 | 6.4 | 8.0 | 0.00 | 1.73 | 1.73 | 55 | 996.1 |
| 20260506225605 | 14 | 78 | 4.8 | 4.8 | 0.00 | 1.73 | 1.73 | 56 | 996.0 |
| 20260506225101 | 14 | 88 | 4.8 | 4.8 | 0.00 | 1.73 | 1.73 | 57 | 996.0 |
| 20260506224558 | 14 | 39 | 3.2 | 3.2 | 0.00 | 1.73 | 1.73 | 57 | 996.2 |
| 20260506224055 | 14 | 134 | 1.6 | 3.2 | 0.00 | 1.73 | 1.73 | 57 | 996.2 |
| 20260506223551 | 14 | 153 | 1.6 | 3.2 | 0.00 | 1.73 | 1.73 | 56 | 996.1 |
| 20260506223047 | 14 | 48 | 6.4 | 8.0 | 0.00 | 1.73 | 1.73 | 55 | 996.2 |
| 20260506222544 | 14 | 38 | 4.8 | 4.8 | 0.00 | 1.73 | 1.73 | 55 | 996.3 |
| 20260506222041 | 14 | 4 | 8.0 | 9.7 | 0.00 | 1.73 | 1.73 | 56 | 996.4 |
| 20260506221538 | 15 | 90 | 4.8 | 8.0 | 0.00 | 1.73 | 1.73 | 56 | 996.6 |
| 20260506221036 | 15 | 46 | 1.6 | 3.2 | 0.00 | 1.73 | 1.73 | 56 | 996.3 |
| 20260506220532 | 15 | 42 | 6.4 | 8.0 | 0.00 | 1.73 | 1.73 | 56 | 996.5 |
| 20260506220028 | 15 | 56 | 4.8 | 8.0 | 0.00 | 1.73 | 1.73 | 55 | 996.4 |
| 20260506215525 | 14 | 48 | 3.2 | 4.8 | 0.00 | 1.73 | 1.73 | 55 | 996.5 |
| 20260506215020 | 15 | 76 | 4.8 | 8.0 | 0.00 | 1.73 | 1.73 | 54 | 996.8 |
| 20260506214518 | 15 | 163 | 1.6 | 1.6 | 0.00 | 1.73 | 1.73 | 53 | 996.8 |
| 20260506214015 | 15 | 346 | 6.4 | 8.0 | 0.00 | 1.73 | 1.73 | 54 | 996.6 |
| 20260506213513 | 15 | 126 | 6.4 | 8.0 | 0.00 | 1.73 | 1.73 | 51 | 996.5 |
| 20260506213010 | 15 | 86 | 6.4 | 8.0 | 0.00 | 1.73 | 1.73 | 52 | 996.4 |
| 20260506212506 | 15 | 184 | 1.6 | 3.2 | 0.00 | 1.73 | 1.73 | 53 | 996.6 |
| 20260506212001 | 15 | 76 | 6.4 | 9.7 | 0.00 | 1.73 | 1.73 | 52 | 996.6 |
| 20260506211457 | 15 | 47 | 4.8 | 4.8 | 0.00 | 1.73 | 1.73 | 56 | 996.2 |
| 20260506210954 | 15 | 170 | 4.8 | 4.8 | 0.00 | 1.73 | 1.73 | 53 | 996.5 |
| 20260506210450 | 15 | 77 | 3.2 | 4.8 | 0.00 | 1.73 | 1.73 | 57 | 996.3 |
| 20260506205948 | 15 | 62 | 3.2 | 3.2 | 0.00 | 1.73 | 1.73 | 55 | 996.2 |
| 20260506205443 | 15 | 65 | 6.4 | 9.7 | 0.00 | 1.73 | 1.73 | 57 | 996.3 |
| 20260506204940 | 15 | 31 | 11.3 | 16.1 | 0.00 | 1.73 | 1.73 | 54 | 996.2 |
| 20260506204438 | 15 | 175 | 1.6 | 1.6 | 0.00 | 1.73 | 1.73 | 56 | 996.1 |
| 20260506203935 | 15 | 59 | 3.2 | 3.2 | 0.00 | 1.73 | 1.73 | 56 | 996.0 |
| 20260506203432 | 15 | 50 | 3.2 | 4.8 | 0.00 | 1.73 | 1.73 | 56 | 996.1 |
| 20260506202929 | 15 | 33 | 8.0 | 9.7 | 0.00 | 1.73 | 1.73 | 56 | 996.2 |
| 20260506202427 | 15 | 158 | 4.8 | 8.0 | 0.00 | 1.73 | 1.73 | 56 | 996.0 |
| 20260506201922 | 16 | 171 | 1.6 | 1.6 | 0.00 | 1.73 | 1.73 | 57 | 996.2 |
| 20260506201420 | 16 | 32 | 3.2 | 4.8 | 0.00 | 1.73 | 1.73 | 55 | 996.1 |
| 20260506200917 | 16 | 192 | 3.2 | 3.2 | 0.00 | 1.73 | 1.73 | 55 | 996.1 |
| 20260506200413 | 15 | 66 | 4.8 | 8.0 | 0.00 | 1.73 | 1.73 | 54 | 996.2 |
| 20260506195910 | 16 | 73 | 3.2 | 3.2 | 0.00 | 1.73 | 1.73 | 55 | 996.1 |
| 20260506195407 | 16 | 205 | 1.6 | 3.2 | 0.00 | 1.73 | 1.73 | 56 | 996.1 |
| 20260506194903 | 15 | 63 | 4.8 | 4.8 | 0.00 | 1.73 | 1.73 | 54 | 996.4 |
| 20260506194400 | 15 | 73 | 3.2 | 4.8 | 0.00 | 1.73 | 1.73 | 53 | 996.4 |
| 20260506193857 | 16 | 308 | 6.4 | 8.0 | 0.00 | 1.73 | 1.73 | 52 | 996.2 |
| 20260506193354 | 16 | 136 | 1.6 | 1.6 | 0.00 | 1.73 | 1.73 | 55 | 996.1 |
| 20260506192851 | 16 | 201 | 1.6 | 3.2 | 0.00 | 1.73 | 1.73 | 54 | 996.4 |
| 20260506192348 | 16 | 165 | 0.0 | 1.6 | 0.00 | 1.73 | 1.73 | 53 | 996.3 |
| 20260506191845 | 16 | 224 | 3.2 | 3.2 | 0.00 | 1.73 | 1.73 | 55 | 996.0 |
| 20260506191341 | 16 | 139 | 1.6 | 3.2 | 0.00 | 1.73 | 1.73 | 57 | 996.0 |
| 20260506190838 | 16 | 202 | 1.6 | 3.2 | 0.00 | 1.73 | 1.73 | 54 | 995.7 |
| 20260506190334 | 15 | 229 | 4.8 | 4.8 | 0.00 | 1.73 | 1.73 | 53 | 996.1 |
| 20260506185831 | 15 | 43 | 3.2 | 3.2 | 0.00 | 1.73 | 1.73 | 57 | 996.0 |
| 20260506185328 | 15 | 74 | 4.8 | 9.7 | 0.00 | 1.73 | 1.73 | 54 | 995.9 |
| 20260506184825 | 15 | 62 | 8.0 | 11.3 | 0.00 | 1.73 | 1.73 | 55 | 996.0 |
| 20260506184322 | 15 | 87 | 6.4 | 8.0 | 0.00 | 1.73 | 1.73 | 54 | 996.0 |
| 20260506183820 | 15 | 254 | 1.6 | 3.2 | 0.00 | 1.73 | 1.73 | 60 | 996.0 |
| 20260506183315 | 15 | 157 | 1.6 | 3.2 | 0.00 | 1.73 | 1.73 | 57 | 995.8 |
| 20260506182812 | 15 | 90 | 4.8 | 4.8 | 0.00 | 1.73 | 1.73 | 57 | 995.9 |
| 20260506182309 | 15 | 109 | 3.2 | 4.8 | 0.00 | 1.73 | 1.73 | 56 | 996.0 |
| 20260506181807 | 15 | 71 | 8.0 | 12.9 | 0.00 | 1.73 | 1.73 | 58 | 995.9 |
| 20260506181305 | 15 | 32 | 4.8 | 4.8 | 0.00 | 1.73 | 1.73 | 58 | 995.9 |
| 20260506180802 | 15 | 77 | 4.8 | 4.8 | 0.00 | 1.73 | 1.73 | 58 | 995.9 |
| 20260506180257 | 15 | 267 | 4.8 | 9.7 | 0.00 | 1.73 | 1.73 | 62 | 995.7 |
| 20260506175754 | 15 | 177 | 4.8 | 8.0 | 0.00 | 1.73 | 1.73 | 57 | 996.1 |
| 20260506175251 | 14 | 56 | 4.8 | 4.8 | 0.00 | 1.73 | 1.73 | 60 | 996.1 |
| 20260506174748 | 15 | 58 | 6.4 | 8.0 | 0.00 | 1.73 | 1.73 | 58 | 996.1 |
| 20260506174245 | 14 | 66 | 4.8 | 4.8 | 0.00 | 1.73 | 1.73 | 60 | 996.4 |
| 20260506173743 | 14 | 153 | 1.6 | 3.2 | 0.00 | 1.73 | 1.73 | 62 | 996.2 |
| 20260506173240 | 14 | 202 | 1.6 | 1.6 | 0.00 | 1.73 | 1.73 | 60 | 996.3 |
| 20260506172736 | 13 | 67 | 6.4 | 9.7 | 0.00 | 1.73 | 1.73 | 59 | 996.3 |
| 20260506172233 | 14 | 49 | 8.0 | 11.3 | 0.00 | 1.73 | 1.73 | 59 | 996.6 |
| 20260506171731 | 13 | 180 | 4.8 | 4.8 | 0.00 | 1.73 | 1.73 | 64 | 996.6 |
| 20260506171228 | 13 | 38 | 11.3 | 16.1 | 0.00 | 1.73 | 1.73 | 64 | 996.7 |
| 20260506170725 | 13 | 44 | 3.2 | 8.0 | 0.00 | 1.73 | 1.73 | 63 | 996.6 |
| 20260506170222 | 13 | 337 | 4.8 | 4.8 | 0.00 | 1.73 | 1.73 | 63 | 996.6 |
| 20260506165720 | 13 | 59 | 14.5 | 16.1 | 0.00 | 1.73 | 1.73 | 62 | 996.5 |
| 20260506165217 | 13 | 95 | 1.6 | 1.6 | 0.00 | 1.73 | 1.73 | 65 | 996.7 |
| 20260506164714 | 13 | 92 | 4.8 | 4.8 | 0.00 | 1.73 | 1.73 | 65 | 996.8 |
| 20260506164211 | 13 | 46 | 1.6 | 3.2 | 0.00 | 1.73 | 1.73 | 64 | 996.5 |
| 20260506163707 | 13 | 41 | 8.0 | 12.9 | 0.00 | 1.73 | 1.73 | 63 | 996.5 |
| 20260506163202 | 13 | 100 | 9.7 | 12.9 | 0.00 | 1.73 | 1.73 | 62 | 996.7 |
| 20260506162659 | 13 | 47 | 11.3 | 12.9 | 0.00 | 1.73 | 1.73 | 63 | 996.7 |
| 20260506162157 | 12 | 64 | 11.3 | 12.9 | 0.00 | 1.73 | 1.73 | 66 | 996.7 |
| 20260506161654 | 13 | 74 | 9.7 | 11.3 | 0.00 | 1.73 | 1.73 | 64 | 996.7 |
| 20260506161150 | 12 | 44 | 4.8 | 9.7 | 0.00 | 1.73 | 1.73 | 67 | 996.6 |
| 20260506160648 | 12 | 82 | 4.8 | 8.0 | 0.00 | 1.73 | 1.73 | 63 | 996.5 |